Flag for U.S.A. Weather past 2 weeks in Decatur, Illinois, U.S.A.

Now
71 °F

Sunny.


Feels Like: 75 °F
Forecast: 54 / 73 °F
Wind: 8 mph from West

Location: Decatur Airport

Current Time: Oct 25, 2014 at 1:00:08 PM

Latest Report: Oct 25, 2014 at 11:54 AM


Visibility: 8 mi

Pressure: 30.01 "Hg

Humidity: 68%

Dew point: 60 °F

Location of DecaturLocation

Historic Weather in Decatur — Graph

°F

Decatur temperature yesterday

Maximum temperature yesterday: 64 °F (at 11:54 AM)
Minimum temperature yesterday: 48 °F (at 5:54 AM)
Average temperature yesterday: 57 °F

Past Weeks' High & Low Weather Summary

 TemperatureHumidityPressure
High71 °F (Oct 13, 3:54 PM)100% (Oct 13, 4:01 AM)30.37 "Hg (Oct 13, 4:01 AM)
Low34 °F (Oct 23, 5:54 AM)44% (Oct 20, 2:54 PM)29.45 "Hg (Oct 14, 9:54 AM)
Average54 °F79%29.97 "Hg
* Reported Oct 10 11:54 AM — Oct 25 11:54 AM, Decatur, Weather by CustomWeather, © 2014

Note: Actual official high and low records may vary slightly from our data, if they occured in-between our weather recording intervals... More about our weather records

Advertising

Decatur weather history for previous 24 hours

 ConditionsComfort  
Time TempWeatherWind HumidityBarometerVisibility
11:54 AM
Oct 25
71 °FSunny.8 mph68%30.01 "Hg8 mi
10:54 AM65 °FHaze.7 mph81%30.02 "Hg4 mi
9:54 AM61 °FFog.9 mph93%30.02 "Hg1 mi
9:03 AM60 °FFog.6 mph93%30.02 "Hg1 mi
8:54 AM60 °FFog.8 mph93%30.01 "Hg2 mi
7:54 AM56 °FFog.7 mph97%30.01 "Hg4 mi
6:54 AM57 °FClear.8 mph90%29.99 "Hg7 mi
5:54 AM57 °FPassing clouds.7 mph90%29.98 "Hg10 mi
4:54 AM58 °FClear.8 mph84%29.96 "Hg10 mi
3:54 AM60 °FClear.8 mph78%29.94 "Hg10 mi
2:54 AM61 °FPassing clouds.10 mph75%29.95 "Hg10 mi
1:54 AM62 °FOvercast.13 mph73%29.95 "Hg10 mi
12:54 AM61 °FMostly cloudy.13 mph72%29.96 "Hg10 mi
11:54 PM
Oct 24
61 °FOvercast.12 mph72%29.98 "Hg10 mi
10:54 PM60 °FMostly cloudy.8 mph80%30.00 "Hg9 mi
9:54 PM58 °FOvercast.6 mph84%30.00 "Hg8 mi
8:54 PM57 °FClear.8 mph87%30.00 "Hg8 mi
7:54 PM56 °FClear.7 mph87%30.01 "Hg9 mi
6:54 PM58 °FSunny.7 mph84%30.01 "Hg9 mi
5:54 PM60 °FSunny.7 mph80%30.01 "Hg9 mi
4:54 PM62 °FSunny.8 mph78%30.02 "Hg10 mi
3:54 PM61 °FPartly sunny.10 mph83%30.03 "Hg9 mi
2:54 PM63 °FScattered clouds.13 mph78%30.03 "Hg9 mi
1:54 PM64 °FSunny.12 mph75%30.05 "Hg10 mi
Weather by CustomWeather, © 2014

See weather overviewHow to use our weather pages